Location: ???????
(55.9142°N, 37.8256°E)
Time: 04:31:45
(UTC+00:00)

Cosmos 1933 Rocket - Pass Details

Date: 14 April 2024
Orbit: 602 x 628 km, 82.5° (Epoch: 20 May)

Event Time Altitude Azimuth Distance (km) Brightness Sun altitude
Rises 01:41:51 0° 348° (NNW) 2,906 7.2 -6.4°
Reaches altitude 10° 01:44:06 10° 350° (N) 1,991 6.4 -6.1°
Maximum altitude 01:48:31 79° 78° (ENE) 631 3.8 -5.6°
Drops below altitude 10° 01:52:51 10° 165° (SSE) 1,960 6.0 -5.0°
Sets 01:55:03 0° 166° (SSE) 2,856 6.9 -4.8°
